NOZ1HD LIEO-ENGM

Flight info

Callsign NOZ1HD
Flight time N/A
Altitude 34000
Route OLBEK DCT IBROS DCT BRENO DCT KONIN DCT EXITI DCT MEGAR DCT SABAK L997 REGMA DCT LUNIP
Aircraft B738/M-SDE2E3FGHIRWXY/LB1

Departure

Time 2026-05-07 18:08
Airport Olbia Costa Smeralda Airport (LIEO)

Arrival

Time N/A
Airport Oslo-Gardermoen International Airport (ENGM)
Time Latitude Longitude Altitude Speed Heading
2026-05-07 17:49 40.90201 9.51573 33 ft 0 kts 325°
2026-05-07 17:49 40.90224 9.51618 32 ft 0 kts 325°
2026-05-07 18:00 40.90214 9.51628 33 ft 4 kts 321°
2026-05-07 18:01 40.90195 9.51651 33 ft 4 kts 304°
2026-05-07 18:01 40.90185 9.51682 31 ft 4 kts 262°
2026-05-07 18:01 40.90188 9.51697 33 ft 1 kts 235°
2026-05-07 18:03 40.90186 9.51693 32 ft 2 kts 235°
2026-05-07 18:03 40.90170 9.51662 33 ft 7 kts 235°
2026-05-07 18:03 40.90134 9.51594 33 ft 11 kts 235°
2026-05-07 18:04 40.90079 9.51492 33 ft 15 kts 231°
2026-05-07 18:04 40.90021 9.51506 33 ft 10 kts 149°
2026-05-07 18:04 40.89942 9.51499 33 ft 14 kts 210°
2026-05-07 18:04 40.89875 9.51389 33 ft 17 kts 236°
2026-05-07 18:05 40.89800 9.51251 32 ft 20 kts 236°
2026-05-07 18:05 40.89715 9.51086 33 ft 23 kts 235°
2026-05-07 18:05 40.89618 9.50901 33 ft 24 kts 235°
2026-05-07 18:05 40.89525 9.50723 33 ft 22 kts 235°
2026-05-07 18:06 40.89440 9.50561 33 ft 21 kts 236°
2026-05-07 18:06 40.89375 9.50453 33 ft 10 kts 210°
2026-05-07 18:06 40.89308 9.50457 33 ft 10 kts 161°
2026-05-07 18:06 40.89277 9.50534 33 ft 11 kts 103°
2026-05-07 18:07 40.89281 9.50644 32 ft 20 kts 60°
2026-05-07 18:07 40.89483 9.51030 32 ft 84 kts 55°
2026-05-07 18:07 40.89933 9.51892 32 ft 142 kts 56°
2026-05-07 18:07 40.90571 9.53106 266 ft 169 kts 56°
2026-05-07 18:08 40.91208 9.54346 1097 ft 163 kts 57°
2026-05-07 18:08 40.91877 9.55630 1564 ft 178 kts 56°
2026-05-07 18:08 40.92765 9.56947 1797 ft 206 kts 35°
2026-05-07 18:08 40.94054 9.57989 2004 ft 228 kts 32°
2026-05-07 18:09 40.95438 9.59120 2372 ft 242 kts 33°
2026-05-07 18:09 40.96929 9.60362 2757 ft 259 kts 33°
2026-05-07 18:09 40.98450 9.61643 3550 ft 259 kts 34°
2026-05-07 18:09 40.99977 9.62940 4297 ft 263 kts 34°
2026-05-07 18:10 41.01526 9.64263 5011 ft 267 kts 34°
2026-05-07 18:10 41.03099 9.65613 5712 ft 271 kts 34°
2026-05-07 18:10 41.04687 9.66981 6417 ft 275 kts 34°
2026-05-07 18:10 41.06300 9.68372 7082 ft 278 kts 34°
2026-05-07 18:11 41.07933 9.69784 7744 ft 282 kts 34°
2026-05-07 18:11 41.09026 9.70731 8190 ft 284 kts 34°
2026-05-07 18:11 41.11240 9.72649 9074 ft 290 kts 34°
2026-05-07 18:11 41.12935 9.74119 9745 ft 293 kts 35°
2026-05-07 18:12 41.14658 9.75615 10294 ft 301 kts 34°
2026-05-07 18:12 41.16473 9.77194 10451 ft 323 kts 34°
2026-05-07 18:12 41.18402 9.78872 10652 ft 340 kts 34°
2026-05-07 18:12 41.20409 9.80616 11145 ft 348 kts 34°
2026-05-07 18:13 41.22446 9.82388 11772 ft 351 kts 34°
2026-05-07 18:13 41.24500 9.84173 12441 ft 354 kts 33°
2026-05-07 18:13 41.26695 9.85691 13076 ft 359 kts 21°
2026-05-07 18:13 41.29092 9.86680 13738 ft 363 kts 15°
2026-05-07 18:14 41.31545 9.87544 14324 ft 367 kts 14°
2026-05-07 18:14 41.34028 9.88400 14917 ft 371 kts 14°
2026-05-07 18:14 41.36539 9.89270 15540 ft 375 kts 14°
2026-05-07 18:14 41.39077 9.90161 16153 ft 379 kts 14°
2026-05-07 18:15 41.41643 9.91071 16738 ft 384 kts 14°
2026-05-07 18:15 41.44234 9.91998 17318 ft 388 kts 13°
2026-05-07 18:15 41.46857 9.92942 17905 ft 392 kts 13°
2026-05-07 18:15 41.49508 9.93899 18453 ft 397 kts 13°
2026-05-07 18:16 41.52180 9.94865 18999 ft 399 kts 13°
2026-05-07 18:16 41.54863 9.95837 19582 ft 400 kts 13°
2026-05-07 18:16 41.57556 9.96814 20170 ft 401 kts 12°
2026-05-07 18:16 41.60253 9.97792 20723 ft 403 kts 12°
2026-05-07 18:17 41.62972 9.98779 21229 ft 407 kts 12°
2026-05-07 18:17 41.65715 9.99775 21726 ft 410 kts 12°
2026-05-07 18:17 41.68471 10.00777 22232 ft 412 kts 12°
2026-05-07 18:17 41.71246 10.01788 22738 ft 415 kts 12°
2026-05-07 18:18 41.74037 10.02805 23233 ft 417 kts 11°
2026-05-07 18:18 41.76810 10.03816 23691 ft 420 kts 11°
2026-05-07 18:18 41.79642 10.04836 24045 ft 423 kts
2026-05-07 18:18 41.82567 10.05656 24391 ft 425 kts
2026-05-07 18:19 41.85445 10.06343 24748 ft 428 kts
2026-05-07 18:19 41.88390 10.07002 25094 ft 431 kts
2026-05-07 18:19 41.91359 10.07659 25440 ft 434 kts
2026-05-07 18:19 41.94345 10.08327 25780 ft 437 kts
2026-05-07 18:20 41.97355 10.09013 26141 ft 440 kts
2026-05-07 18:20 42.00381 10.09713 26506 ft 442 kts
2026-05-07 18:20 42.03422 10.10424 26838 ft 445 kts
2026-05-07 18:20 42.06484 10.11144 27148 ft 448 kts
2026-05-07 18:21 42.09567 10.11873 27458 ft 452 kts
2026-05-07 18:21 42.12675 10.12610 27758 ft 455 kts
2026-05-07 18:21 42.15797 10.13351 28076 ft 457 kts
2026-05-07 18:21 42.18936 10.14097 28426 ft 459 kts
2026-05-07 18:22 42.22087 10.14848 28754 ft 461 kts
2026-05-07 18:22 42.28440 10.16360 29293 ft 467 kts
2026-05-07 18:22 42.31643 10.17123 29573 ft 469 kts
2026-05-07 18:23 42.34865 10.17891 29869 ft 471 kts
2026-05-07 18:23 42.38095 10.18664 30222 ft 471 kts
2026-05-07 18:23 42.41312 10.19436 30575 ft 470 kts
2026-05-07 18:23 42.44529 10.20208 30880 ft 470 kts
2026-05-07 18:24 42.47750 10.20981 31172 ft 470 kts
2026-05-07 18:24 42.50961 10.21752 31529 ft 468 kts
2026-05-07 18:24 42.54169 10.22523 31828 ft 468 kts
2026-05-07 18:24 42.57383 10.23295 32111 ft 469 kts
2026-05-07 18:25 42.60602 10.24068 32371 ft 470 kts
2026-05-07 18:25 42.63822 10.24843 32663 ft 470 kts
2026-05-07 18:25 42.67042 10.25619 32951 ft 470 kts
2026-05-07 18:25 42.70266 10.26397 33222 ft 470 kts
2026-05-07 18:26 42.73485 10.27175 33487 ft 470 kts
2026-05-07 18:26 42.76709 10.27956 33811 ft 470 kts
2026-05-07 18:26 42.79924 10.28739 34011 ft 470 kts
2026-05-07 18:27 42.85284 10.30036 33989 ft 471 kts
2026-05-07 18:27 42.91696 10.31596 33976 ft 465 kts
2026-05-07 18:28 42.98061 10.33146 34001 ft 464 kts
2026-05-07 18:28 43.04419 10.34695 33982 ft 464 kts
2026-05-07 18:29 43.10771 10.36247 33980 ft 463 kts
2026-05-07 18:29 43.17112 10.37800 34014 ft 463 kts
2026-05-07 18:30 43.23462 10.39359 33989 ft 463 kts
2026-05-07 18:30 43.29803 10.40919 33987 ft 463 kts
2026-05-07 18:31 43.36138 10.42481 34014 ft 463 kts
2026-05-07 18:31 43.42477 10.44047 33995 ft 463 kts
2026-05-07 18:32 43.48811 10.45616 33985 ft 462 kts
2026-05-07 18:32 43.55135 10.47185 34014 ft 462 kts
2026-05-07 18:33 43.61455 10.48757 33995 ft 461 kts
2026-05-07 18:33 43.67772 10.50331 33989 ft 460 kts
2026-05-07 18:34 43.74069 10.51904 34016 ft 459 kts
2026-05-07 18:34 43.80355 10.53478 34006 ft 459 kts
2026-05-07 18:35 43.86627 10.55051 34009 ft 457 kts
2026-05-07 18:35 43.92866 10.56620 34035 ft 455 kts
2026-05-07 18:36 43.99056 10.58178 34055 ft 455 kts
2026-05-07 18:36 44.05282 10.59748 34093 ft 455 kts
2026-05-07 18:37 44.11506 10.61327 34082 ft 455 kts
2026-05-07 18:37 44.17731 10.62904 34085 ft 455 kts
2026-05-07 18:38 44.23957 10.64485 34088 ft 455 kts
2026-05-07 18:38 44.30175 10.66065 34094 ft 454 kts
2026-05-07 18:39 44.36398 10.67652 34081 ft 455 kts
2026-05-07 18:39 44.42628 10.69244 34078 ft 455 kts
2026-05-07 18:40 44.48860 10.70841 34088 ft 455 kts
2026-05-07 18:40 44.55091 10.72442 34074 ft 455 kts
2026-05-07 18:41 44.61324 10.74045 34061 ft 455 kts
2026-05-07 18:41 44.67553 10.75653 34045 ft 455 kts
2026-05-07 18:42 44.73785 10.77263 34042 ft 456 kts
2026-05-07 18:42 44.80024 10.78879 34027 ft 456 kts
2026-05-07 18:43 44.86259 10.80498 34024 ft 456 kts
2026-05-07 18:43 44.92480 10.82117 34027 ft 456 kts
2026-05-07 18:44 44.98623 10.83718 34012 ft 456 kts
2026-05-07 18:44 45.04869 10.85351 34000 ft 456 kts
2026-05-07 18:45 45.11108 10.86985 33999 ft 456 kts
2026-05-07 18:45 45.17347 10.88623 33993 ft 456 kts
2026-05-07 18:46 45.23585 10.90264 33991 ft 456 kts
2026-05-07 18:46 45.29813 10.91906 33973 ft 455 kts
2026-05-07 18:47 45.36041 10.93553 33969 ft 455 kts
2026-05-07 18:47 45.42260 10.95200 33966 ft 454 kts
2026-05-07 18:48 45.48464 10.96847 33978 ft 454 kts
2026-05-07 18:48 45.54666 10.98499 33961 ft 453 kts
2026-05-07 18:49 45.60852 11.00149 33985 ft 452 kts
2026-05-07 18:49 45.67012 11.01791 34019 ft 449 kts
2026-05-07 18:50 45.73174 11.03444 34036 ft 455 kts
2026-05-07 18:50 45.79418 11.05174 34029 ft 466 kts
2026-05-07 18:51 45.85821 11.06915 34073 ft 470 kts
2026-05-07 18:51 45.92270 11.08613 34035 ft 470 kts
2026-05-07 18:52 45.98682 11.10314 34057 ft 467 kts
2026-05-07 18:52 46.05046 11.12050 34083 ft 464 kts
2026-05-07 18:53 46.11392 11.13770 34076 ft 463 kts
2026-05-07 18:53 46.17709 11.15485 34065 ft 461 kts
2026-05-07 18:54 46.23998 11.17190 34068 ft 459 kts
2026-05-07 18:54 46.30266 11.18910 34069 ft 458 kts
2026-05-07 18:55 46.36530 11.20630 34082 ft 459 kts
2026-05-07 18:55 46.42810 11.22360 34049 ft 460 kts
2026-05-07 18:56 46.49087 11.24093 34048 ft 460 kts
2026-05-07 18:56 46.55376 11.25825 33957 ft 461 kts
2026-05-07 18:57 46.61703 11.27570 33971 ft 464 kts
2026-05-07 18:57 46.68057 11.29332 33991 ft 466 kts
2026-05-07 18:58 46.74424 11.31060 33985 ft 463 kts
2026-05-07 18:58 46.80736 11.32801 34077 ft 459 kts
2026-05-07 18:59 46.87015 11.34672 34051 ft 462 kts
2026-05-07 18:59 46.93328 11.36403 34050 ft 462 kts
2026-05-07 19:00 46.99666 11.37822 34037 ft 457 kts 355°
2026-05-07 19:00 47.05995 11.37796 34045 ft 456 kts 353°
2026-05-07 19:01 47.12320 11.37618 34057 ft 453 kts 353°
2026-05-07 19:01 47.18619 11.37500 34055 ft 453 kts 354°
2026-05-07 19:02 47.24918 11.37427 34077 ft 452 kts 354°
2026-05-07 19:02 47.31221 11.37360 34062 ft 453 kts 354°
2026-05-07 19:03 47.37525 11.37296 34055 ft 454 kts 354°
2026-05-07 19:03 47.43803 11.37234 34042 ft 454 kts 354°
2026-05-07 19:04 47.50151 11.37165 34060 ft 451 kts 354°
2026-05-07 19:04 47.56386 11.37102 34052 ft 451 kts 354°
2026-05-07 19:05 47.62667 11.37038 34060 ft 452 kts 355°
2026-05-07 19:05 47.68959 11.36973 34063 ft 453 kts 355°
2026-05-07 19:06 47.75256 11.36908 34053 ft 453 kts 355°
2026-05-07 19:06 47.84706 11.36809 34065 ft 453 kts 355°
2026-05-07 19:07 47.91016 11.36852 34072 ft 454 kts 356°
2026-05-07 19:07 47.97339 11.37021 34065 ft 455 kts 357°
2026-05-07 19:08 48.03661 11.37190 34085 ft 454 kts 356°
2026-05-07 19:08 48.09986 11.37341 34079 ft 454 kts 357°
2026-05-07 19:09 48.16310 11.37484 34074 ft 454 kts 357°
2026-05-07 19:09 48.22634 11.37624 34074 ft 454 kts 357°
2026-05-07 19:10 48.28956 11.37765 34072 ft 454 kts 357°
2026-05-07 19:10 48.35277 11.37907 34073 ft 454 kts 357°
2026-05-07 19:11 48.41596 11.38050 34074 ft 454 kts 357°
2026-05-07 19:11 48.47918 11.38192 34069 ft 454 kts 357°
2026-05-07 19:12 48.54243 11.38336 34070 ft 455 kts 357°
2026-05-07 19:12 48.59506 11.38455 34060 ft 455 kts 357°
2026-05-07 19:13 48.65838 11.38600 34049 ft 455 kts 357°
2026-05-07 19:13 48.72171 11.38744 34047 ft 455 kts 357°
2026-05-07 19:14 48.78496 11.38889 34059 ft 455 kts 358°
2026-05-07 19:14 48.84822 11.39034 34055 ft 455 kts 358°
2026-05-07 19:15 48.91146 11.39180 34062 ft 454 kts 358°
2026-05-07 19:15 48.97456 11.39325 34069 ft 453 kts 358°
2026-05-07 19:16 49.03767 11.39471 34061 ft 453 kts 358°
2026-05-07 19:16 49.10066 11.39617 34069 ft 452 kts 358°
2026-05-07 19:17 49.16358 11.39763 34067 ft 452 kts 358°
2026-05-07 19:17 49.22644 11.39910 34071 ft 452 kts 358°
2026-05-07 19:18 49.28941 11.40056 34066 ft 452 kts 358°
2026-05-07 19:18 49.35229 11.40204 34071 ft 452 kts 358°
2026-05-07 19:19 49.41517 11.40351 34080 ft 452 kts 358°
2026-05-07 19:19 49.47818 11.40499 34069 ft 453 kts 358°
2026-05-07 19:20 49.54118 11.40648 34057 ft 453 kts 358°
2026-05-07 19:20 49.60420 11.40840 34059 ft 453 kts 359°
2026-05-07 19:21 49.66724 11.41129 34064 ft 454 kts 359°
2026-05-07 19:21 49.73034 11.41429 34055 ft 454 kts 359°
2026-05-07 19:22 49.79343 11.41719 34058 ft 453 kts 359°
2026-05-07 19:22 49.85648 11.42002 34056 ft 453 kts 359°
2026-05-07 19:23 49.91956 11.42283 34057 ft 453 kts 360°
2026-05-07 19:23 49.98215 11.42563 34057 ft 453 kts 360°
2026-05-07 19:24 50.04512 11.42845 34060 ft 452 kts 360°
2026-05-07 19:24 50.10801 11.43128 34069 ft 452 kts 360°
2026-05-07 19:25 50.17084 11.43412 34054 ft 452 kts 360°
2026-05-07 19:25 50.23365 11.43696 34064 ft 451 kts 360°
2026-05-07 19:26 50.29638 11.43981 34060 ft 451 kts 360°
2026-05-07 19:26 50.35908 11.44266 34067 ft 451 kts
2026-05-07 19:27 50.42175 11.44552 34072 ft 451 kts
2026-05-07 19:27 50.48443 11.44839 34072 ft 451 kts
2026-05-07 19:28 50.54711 11.45126 34076 ft 450 kts
2026-05-07 19:28 50.60972 11.45414 34089 ft 450 kts
2026-05-07 19:29 50.67240 11.45703 34081 ft 451 kts
2026-05-07 19:29 50.73509 11.45993 34087 ft 451 kts
2026-05-07 19:30 50.79787 11.46284 34090 ft 451 kts
2026-05-07 19:30 50.86065 11.46576 34084 ft 452 kts
2026-05-07 19:31 50.92348 11.46868 34092 ft 452 kts
2026-05-07 19:31 50.98634 11.47162 34090 ft 452 kts
2026-05-07 19:32 51.04923 11.47457 34088 ft 452 kts
2026-05-07 19:32 51.11215 11.47752 34086 ft 452 kts
2026-05-07 19:33 51.17504 11.48049 34093 ft 452 kts
2026-05-07 19:33 51.23795 11.48346 34090 ft 452 kts
2026-05-07 19:34 51.30087 11.48644 34087 ft 452 kts
2026-05-07 19:34 51.36375 11.48943 34090 ft 452 kts
2026-05-07 19:35 51.42658 11.49242 34096 ft 452 kts
2026-05-07 19:35 51.48944 11.49542 34098 ft 452 kts
2026-05-07 19:36 51.55223 11.49843 34097 ft 452 kts
2026-05-07 19:36 51.61508 11.50145 34097 ft 451 kts
2026-05-07 19:37 51.67784 11.50447 34102 ft 451 kts
2026-05-07 19:37 51.74055 11.50750 34107 ft 451 kts
2026-05-07 19:38 51.80332 11.51054 34103 ft 451 kts
2026-05-07 19:38 51.86604 11.51358 34104 ft 451 kts
2026-05-07 19:39 51.92881 11.51664 34104 ft 451 kts
2026-05-07 19:39 51.99153 11.51970 34102 ft 451 kts
2026-05-07 19:40 52.05426 11.52278 34096 ft 451 kts
2026-05-07 19:40 52.11703 11.52586 34098 ft 451 kts
2026-05-07 19:41 52.17981 11.52895 34098 ft 451 kts
2026-05-07 19:41 52.24256 11.53205 34100 ft 451 kts
2026-05-07 19:42 52.30534 11.53516 34094 ft 451 kts
2026-05-07 19:42 52.36814 11.53828 34095 ft 451 kts
2026-05-07 19:43 52.43091 11.54140 34101 ft 451 kts
2026-05-07 19:43 52.49327 11.54452 34101 ft 451 kts
2026-05-07 19:44 52.55647 11.54768 34096 ft 451 kts
2026-05-07 19:44 52.61879 11.55082 34100 ft 451 kts
2026-05-07 19:45 52.68147 11.55397 34101 ft 450 kts
2026-05-07 19:45 52.74405 11.55713 34104 ft 450 kts
2026-05-07 19:46 52.80661 11.56030 34103 ft 449 kts
2026-05-07 19:46 52.86900 11.56347 34104 ft 448 kts
2026-05-07 19:47 52.93132 11.56665 34104 ft 448 kts
2026-05-07 19:47 52.99358 11.56983 34109 ft 447 kts
2026-05-07 19:48 53.05579 11.57302 34108 ft 447 kts
2026-05-07 19:48 53.11791 11.57621 34106 ft 447 kts
2026-05-07 19:49 53.18008 11.57942 34110 ft 447 kts
2026-05-07 19:49 53.24225 11.58263 34113 ft 447 kts
2026-05-07 19:50 53.30440 11.58585 34116 ft 447 kts
2026-05-07 19:50 53.36661 11.58909 34113 ft 447 kts
2026-05-07 19:51 53.42882 11.59233 34114 ft 447 kts
2026-05-07 19:51 53.49103 11.59559 34123 ft 447 kts
2026-05-07 19:52 53.55279 11.59883 34122 ft 447 kts
2026-05-07 19:52 53.61490 11.60210 34117 ft 447 kts
2026-05-07 19:53 53.67703 11.60537 34121 ft 446 kts
2026-05-07 19:53 53.73907 11.60866 34122 ft 446 kts
2026-05-07 19:54 53.80112 11.61196 34125 ft 446 kts
2026-05-07 19:54 53.86317 11.61526 34126 ft 446 kts
2026-05-07 19:55 53.92515 11.61857 34125 ft 446 kts
2026-05-07 19:55 53.98717 11.62190 34132 ft 445 kts
2026-05-07 19:56 54.04908 11.62522 34129 ft 445 kts
2026-05-07 19:56 54.11099 11.62856 34133 ft 445 kts
2026-05-07 19:57 54.17285 11.63190 34134 ft 444 kts
2026-05-07 19:57 54.23460 11.63524 34142 ft 444 kts
2026-05-07 19:58 54.29628 11.63860 34136 ft 443 kts
2026-05-07 19:58 54.34738 11.64139 34138 ft 442 kts
2026-05-07 19:59 54.40883 11.64475 34144 ft 441 kts
2026-05-07 19:59 54.47006 11.64810 34147 ft 440 kts
2026-05-07 20:00 54.53129 11.64907 34144 ft 439 kts
2026-05-07 20:00 54.59231 11.64842 34147 ft 438 kts
2026-05-07 20:01 54.65316 11.64790 34148 ft 437 kts
2026-05-07 20:01 54.71388 11.64768 34145 ft 436 kts
2026-05-07 20:02 54.77449 11.64758 34148 ft 435 kts
2026-05-07 20:02 54.83502 11.64752 34151 ft 435 kts
2026-05-07 20:03 54.89553 11.64745 34152 ft 435 kts
2026-05-07 20:03 54.95604 11.64738 34147 ft 435 kts
2026-05-07 20:04 55.01654 11.64731 34151 ft 436 kts
2026-05-07 20:04 55.07729 11.64723 34150 ft 436 kts
2026-05-07 20:05 55.13806 11.64715 34150 ft 437 kts
2026-05-07 20:05 55.19901 11.64708 34150 ft 438 kts
2026-05-07 20:06 55.26004 11.64700 34149 ft 439 kts
2026-05-07 20:06 55.32120 11.64693 34160 ft 440 kts
2026-05-07 20:07 55.38245 11.64685 34154 ft 441 kts
2026-05-07 20:07 55.44383 11.64677 34151 ft 441 kts
2026-05-07 20:08 55.50522 11.64669 34156 ft 441 kts
2026-05-07 20:08 55.56661 11.64661 34156 ft 441 kts
2026-05-07 20:09 55.62802 11.64653 34157 ft 441 kts
2026-05-07 20:10 55.72008 11.64640 34156 ft 441 kts
2026-05-07 20:10 55.78139 11.64633 34150 ft 440 kts
2026-05-07 20:11 55.84261 11.64625 34160 ft 440 kts
2026-05-07 20:11 55.90387 11.64617 34160 ft 440 kts
2026-05-07 20:12 55.96507 11.64609 34158 ft 440 kts
2026-05-07 20:12 56.02621 11.64601 34152 ft 440 kts
2026-05-07 20:13 56.08697 11.64593 34157 ft 439 kts
2026-05-07 20:13 56.14816 11.64585 34150 ft 440 kts
2026-05-07 20:14 56.20976 11.64576 34143 ft 440 kts
2026-05-07 20:14 56.27092 11.64568 34154 ft 440 kts
2026-05-07 20:15 56.33174 11.64560 34157 ft 440 kts
2026-05-07 20:15 56.39298 11.64552 34158 ft 440 kts
2026-05-07 20:16 56.45425 11.64544 34150 ft 440 kts
2026-05-07 20:16 56.51555 11.64535 34151 ft 440 kts
2026-05-07 20:17 56.57684 11.64527 34154 ft 441 kts 360°
2026-05-07 20:17 56.63813 11.64519 34151 ft 441 kts 360°
2026-05-07 20:18 56.69950 11.64510 34160 ft 441 kts 360°
2026-05-07 20:18 56.76096 11.64502 34161 ft 442 kts 360°
2026-05-07 20:19 56.82246 11.64493 34160 ft 442 kts 360°
2026-05-07 20:19 56.88399 11.64485 34155 ft 442 kts 359°
2026-05-07 20:20 56.94557 11.64476 34160 ft 443 kts 359°
2026-05-07 20:20 57.00714 11.64467 34157 ft 443 kts 359°
2026-05-07 20:21 57.06871 11.64459 34154 ft 442 kts 359°
2026-05-07 20:21 57.13031 11.64451 34167 ft 442 kts 359°
2026-05-07 20:22 57.19185 11.64442 34162 ft 442 kts 359°
2026-05-07 20:22 57.25332 11.64433 34158 ft 442 kts 359°
2026-05-07 20:23 57.31475 11.64424 34156 ft 441 kts 359°
2026-05-07 20:23 57.37612 11.64416 34154 ft 441 kts 359°
2026-05-07 20:24 57.43743 11.64408 34161 ft 440 kts 358°
2026-05-07 20:24 57.49872 11.64399 34155 ft 440 kts 358°
2026-05-07 20:25 57.55993 11.64390 34155 ft 440 kts 358°
2026-05-07 20:25 57.62113 11.64381 34158 ft 440 kts 358°
2026-05-07 20:26 57.68229 11.64373 34172 ft 439 kts 357°
2026-05-07 20:26 57.74347 11.64364 34160 ft 440 kts 357°
2026-05-07 20:27 57.80467 11.64354 34158 ft 440 kts 357°
2026-05-07 20:27 57.86583 11.64345 34158 ft 439 kts 357°
2026-05-07 20:28 57.92695 11.64337 34159 ft 439 kts 357°
2026-05-07 20:28 57.98768 11.64328 34166 ft 439 kts 356°
2026-05-07 20:29 58.04882 11.64319 34158 ft 439 kts 356°
2026-05-07 20:29 58.10990 11.64310 34153 ft 439 kts 356°
2026-05-07 20:30 58.17100 11.64286 34163 ft 438 kts 355°
2026-05-07 20:30 58.23113 11.62916 34166 ft 435 kts 347°
2026-05-07 20:31 58.29065 11.60920 34166 ft 434 kts 347°
2026-05-07 20:31 58.35027 11.58975 34149 ft 435 kts 347°
2026-05-07 20:32 58.40959 11.57115 34131 ft 423 kts 348°
2026-05-07 20:32 58.43817 11.56232 34139 ft 409 kts 348°
2026-05-07 20:32 58.46600 11.55370 33821 ft 401 kts 347°
2026-05-07 20:32 58.49325 11.54522 33505 ft 395 kts 347°
2026-05-07 20:33 58.52019 11.53680 33198 ft 390 kts 346°
2026-05-07 20:33 58.54688 11.52842 32788 ft 387 kts 346°
2026-05-07 20:33 58.57331 11.52012 32414 ft 383 kts 346°
2026-05-07 20:33 58.59952 11.51187 32041 ft 380 kts 346°
2026-05-07 20:34 58.62550 11.50369 31679 ft 377 kts 346°
2026-05-07 20:34 58.65130 11.49556 31320 ft 374 kts 346°
2026-05-07 20:34 58.67689 11.48749 30968 ft 371 kts 346°
2026-05-07 20:34 58.70231 11.47946 30590 ft 370 kts 346°
2026-05-07 20:35 58.72769 11.47141 30185 ft 369 kts 346°
2026-05-07 20:35 58.75292 11.46340 29770 ft 366 kts 346°
2026-05-07 20:35 58.77790 11.45547 29392 ft 362 kts 346°
2026-05-07 20:35 58.80262 11.44761 29023 ft 358 kts 346°
2026-05-07 20:36 58.82708 11.43981 28708 ft 354 kts 345°
2026-05-07 20:36 58.85134 11.43206 28307 ft 352 kts 345°
2026-05-07 20:36 58.87537 11.42437 27961 ft 349 kts 345°
2026-05-07 20:36 58.89921 11.41673 27606 ft 346 kts 345°
2026-05-07 20:37 58.92284 11.40915 27257 ft 343 kts 345°
2026-05-07 20:37 58.93836 11.40416 27025 ft 341 kts 345°
2026-05-07 20:37 58.96171 11.39665 26677 ft 339 kts 346°
2026-05-07 20:37 58.99265 11.38668 26222 ft 335 kts 346°
2026-05-07 20:38 59.01557 11.37927 25883 ft 333 kts 346°
2026-05-07 20:38 59.03834 11.37191 25545 ft 331 kts 346°
2026-05-07 20:38 59.06100 11.36458 25215 ft 329 kts 346°
2026-05-07 20:38 59.08351 11.35729 24881 ft 327 kts 346°
2026-05-07 20:39 59.10587 11.35004 24569 ft 325 kts 345°
2026-05-07 20:39 59.12787 11.34117 24256 ft 321 kts 342°
2026-05-07 20:39 59.14951 11.33107 23925 ft 319 kts 341°
2026-05-07 20:39 59.17110 11.32114 23560 ft 319 kts 345°
2026-05-07 20:40 59.19316 11.31965 23230 ft 322 kts 356°
2026-05-07 20:40 59.21549 11.32104 22865 ft 320 kts 356°
2026-05-07 20:40 59.23764 11.32238 22557 ft 317 kts 356°
2026-05-07 20:40 59.25961 11.32373 22219 ft 315 kts 356°
2026-05-07 20:41 59.28155 11.32509 21892 ft 315 kts 356°
2026-05-07 20:41 59.30348 11.32648 21584 ft 316 kts 356°
2026-05-07 20:41 59.32567 11.32787 21259 ft 323 kts 356°
2026-05-07 20:41 59.34845 11.32929 20921 ft 331 kts 357°
2026-05-07 20:42 59.37142 11.33079 20574 ft 330 kts 357°
2026-05-07 20:42 59.39429 11.33232 20232 ft 328 kts 357°
2026-05-07 20:42 59.40938 11.33335 20019 ft 327 kts 357°
2026-05-07 20:42 59.43204 11.33488 19674 ft 325 kts 357°
2026-05-07 20:43 59.46214 11.33690 19226 ft 323 kts 357°
2026-05-07 20:43 59.47698 11.33790 19008 ft 322 kts 357°
2026-05-07 20:43 59.49931 11.33939 18671 ft 320 kts 357°
2026-05-07 20:43 59.52899 11.34138 18205 ft 318 kts 357°
2026-05-07 20:44 59.54363 11.34236 17959 ft 317 kts 357°
2026-05-07 20:44 59.56560 11.34384 17613 ft 315 kts 357°
2026-05-07 20:44 59.59479 11.34580 17154 ft 312 kts 357°
2026-05-07 20:44 59.60915 11.34677 16952 ft 311 kts 358°
2026-05-07 20:45 59.63069 11.34822 16632 ft 309 kts 358°
2026-05-07 20:45 59.65211 11.34967 16311 ft 307 kts 358°
2026-05-07 20:45 59.67335 11.35110 15999 ft 305 kts 358°
2026-05-07 20:45 59.69450 11.35253 15690 ft 303 kts 358°
2026-05-07 20:46 59.71555 11.35395 15379 ft 302 kts 358°
2026-05-07 20:46 59.73649 11.35536 15069 ft 301 kts 358°
2026-05-07 20:46 59.75738 11.35677 14747 ft 300 kts 358°
2026-05-07 20:46 59.77817 11.35818 14444 ft 298 kts 358°
2026-05-07 20:47 59.79890 11.35958 14119 ft 297 kts 358°
2026-05-07 20:47 59.81954 11.36098 13787 ft 296 kts 358°
2026-05-07 20:47 59.84012 11.36238 13454 ft 295 kts 358°
2026-05-07 20:47 59.86055 11.36377 13123 ft 293 kts 359°
2026-05-07 20:48 59.88089 11.36519 12808 ft 291 kts 359°
2026-05-07 20:48 59.90109 11.36657 12498 ft 289 kts 359°
2026-05-07 20:48 59.92117 11.36793 12191 ft 288 kts 359°
2026-05-07 20:48 59.92765 11.36838 12091 ft 287 kts 359°
2026-05-07 20:49 59.96125 11.37066 11489 ft 289 kts 359°
2026-05-07 20:49 59.98130 11.37204 11177 ft 288 kts 359°
2026-05-07 20:49 60.00132 11.37341 10859 ft 287 kts 359°
2026-05-07 20:49 60.02126 11.37479 10545 ft 286 kts 360°
2026-05-07 20:50 60.04111 11.37616 10235 ft 285 kts 360°
2026-05-07 20:50 60.06066 11.37752 10104 ft 277 kts 360°
2026-05-07 20:50 60.07971 11.37885 9899 ft 272 kts
2026-05-07 20:50 60.09864 11.38015 9597 ft 271 kts
2026-05-07 20:51 60.11744 11.38145 9323 ft 270 kts
2026-05-07 20:51 60.13610 11.38275 9046 ft 268 kts
2026-05-07 20:51 60.15470 11.38403 8765 ft 266 kts
2026-05-07 20:51 60.17316 11.38531 8490 ft 265 kts
2026-05-07 20:52 60.19148 11.38659 8228 ft 263 kts
2026-05-07 20:52 60.20974 11.38786 7949 ft 262 kts
2026-05-07 20:52 60.22795 11.38913 7661 ft 262 kts
2026-05-07 20:52 60.24611 11.39040 7372 ft 261 kts
2026-05-07 20:53 60.26399 11.39165 7107 ft 260 kts
2026-05-07 20:53 60.28208 11.39292 6830 ft 260 kts
2026-05-07 20:53 60.30015 11.39418 6560 ft 259 kts
2026-05-07 20:53 60.31815 11.39545 6278 ft 259 kts
2026-05-07 20:54 60.33609 11.39671 6005 ft 257 kts
2026-05-07 20:54 60.35387 11.39796 5816 ft 252 kts
2026-05-07 20:54 60.37113 11.39917 5711 ft 244 kts
2026-05-07 20:54 60.38781 11.39904 5578 ft 236 kts 349°
2026-05-07 20:55 60.40192 11.38464 5548 ft 227 kts 314°
2026-05-07 20:55 60.40543 11.37655 5522 ft 227 kts 303°
2026-05-07 20:55 60.41176 11.32576 5140 ft 229 kts 261°
2026-05-07 20:55 60.40834 11.29462 4901 ft 227 kts 254°
2026-05-07 20:56 60.40429 11.26383 4632 ft 225 kts 249°
2026-05-07 20:56 60.40228 11.25405 4535 ft 224 kts 239°